Location: Unspecified
(41.5516°N, 88.1098°W)
Time: 20:40:19
(UTC-05:00)

Okean 3 - Visible Passes

Search period start: 26 June 2017 00:00
Search period end: 06 July 2017 00:00
Orbit: 578 x 602 km, 82.5° (Epoch: 26 June)

Date Brightness Start Highest point End Pass type
(mag) Time Alt. Az. Time Alt. Az. Time Alt. Az.
26 Jun 6.1 01:23:07 10° NE 01:24:40 12° ENE 01:26:12 10° E visible
26 Jun 3.5 02:58:10 10° NNW 03:02:20 58° W 03:03:21 44° SW visible
27 Jun 5.7 01:30:17 10° NNE 01:33:06 17° ENE 01:34:42 14° E visible
27 Jun 4.1 03:06:36 10° NNW 03:10:31 37° W 03:11:14 34° WSW visible
28 Jun 5.2 01:37:59 10° NNE 01:41:30 25° ENE 01:42:37 22° E visible
28 Jun 4.7 03:15:12 10° NW 03:18:40 25° W 03:19:08 24° W visible
29 Jun 4.5 01:45:55 10° N 01:49:51 36° ENE 01:50:33 34° E visible
29 Jun 5.2 03:24:02 10° NW 03:26:46 17° W 03:27:04 17° W visible
30 Jun 3.8 01:53:59 10° N 01:58:09 56° E 01:58:29 54° E visible
30 Jun 5.7 03:33:34 10° WNW 03:34:51 11° W 03:35:01 11° W visible
01 Jul 3.3 02:02:11 10° N 02:06:25 87° E 02:06:27 87° ESE visible
02 Jul 6.0 00:35:40 10° NE 00:36:57 11° ENE 00:37:55 10° E visible
02 Jul 3.6 02:10:29 10° NNW 02:14:27 59° W 02:14:27 59° W visible
03 Jul 5.6 00:42:40 10° NNE 00:45:24 16° ENE 00:45:55 16° E visible
03 Jul 4.2 02:18:54 10° NNW 02:22:27 38° WNW 02:22:27 38° WNW visible
04 Jul 5.1 00:50:20 10° NNE 00:53:47 24° ENE 00:53:56 24° ENE visible
04 Jul 4.9 02:27:28 10° NNW 02:30:28 25° WNW 02:30:28 25° WNW visible
05 Jul 4.6 00:58:15 10° N 01:01:58 35° ENE 01:01:58 35° ENE visible
05 Jul 5.4 02:36:17 10° NW 02:38:30 17° WNW 02:38:30 17° WNW visible
